999  
NZUS99 KDVN 280210  
HRRRRR  
HOURLY WEATHER ROUNDUP  
NATIONAL WEATHER SERVICE QUAD CITIES IA IL  
900 PM CDT THU JUL 27 2017  
 
NOTE: "FAIR" INDICATES FEW OR NO CLOUDS BELOW 12,000 FEET WITH  
NO SIGNIFICANT WEATHER AND/OR OBSTRUCTIONS TO VISIBILITY.  
------------------------------------------------------------------  
 
CITY SKY/WX TMP DP RH WIND PRES REMARKS  
BURLINGTON PTCLDY 78 71 79 NE9 29.93R HX 80  
CEDAR RAPIDS NOT AVBL  
DAVENPORT CLEAR 71 65 81 NE6 29.97R  
DUBUQUE CLEAR 72 62 71 NE5 29.98F  
IOWA CITY CLEAR 78 65 63 NE9 29.96S HX 80  
MOLINE CLEAR 78 63 59 NE7 29.94R HX 80  
------------------------------------------------------------------  
THE STATIONS BELOW ARE NOT NWS STATIONS AND ARE NOT SUBJECT TO NWS  
QUALITY CONTROL. SOME STATIONS DO NOT REPORT WEATHER SUCH AS FOG.  
* - STATIONS THAT REPORT TMP AND DP IN WHOLE DEGREES CELSIUS, WHICH  
ARE THEN CONVERTED TO FAHRENHEIT.  
------------------------------------------------------------------  
 
CITY SKY/WX TMP DP RH WIND PRES REMARKS  
CLINTON NOT AVBL  
FAIRFIELD * CLEAR 72 66 83 N6 29.95R  
FORT MADISON * PTCLDY 75 70 83 N5 29.94S  
FREEPORT CLEAR 68 60 75 NE6 29.99R  
INDEPENDENCE * CLEAR 70 65 83 NE3 29.98S  
KEOKUK * CLEAR 79 70 73 N6 29.91F HX 81  
MACOMB CLOUDY 76 71 84 NE8 29.94S  
MONTICELLO * CLEAR 68 66 94 NE3 29.97R  
MT PLEASANT CLEAR 73 68 86 N7 29.94S  
MUSCATINE * CLEAR 73 68 83 N6 29.94S  
SAVANNA CLEAR 72 65 77 NE6 29.95S  
STERLING/R.F. CLEAR 70 64 81 NE3 29.95S  
VINTON * CLEAR 76 65 69 CALM 29.97F  
WASHINGTON * CLEAR 73 68 83 N7 29.96S  
------------------------------------------------------------------  
 
 
CLICK HERE TO GO TO PREVIOUS BULLETINS.

The Nexlab IL Page
The Nexlab IA Page
The Nexlab MO Page Main Text Page